Location: Newark
(39.5667°N, 8.9833°E)
Time: 15:31:54
(UTC+00:00)

Transit 2A Rocket - All Passes

Search period start: 17 October 2019 00:00
Search period end: 27 October 2019 00:00
Orbit: 593 x 910 km, 66.7° (Epoch: 15 October)

Date Brightness Start Highest point End Pass type
(mag) Time Alt. Az. Time Alt. Az. Time Alt. Az.
17 Oct - 03:53:29 10° SSE 03:57:46 26° ESE 04:01:46 10° NE visible
17 Oct - 05:35:21 10° SW 05:40:10 38° NW 05:44:37 10° NNE daylight
17 Oct - 12:38:09 10° N 12:40:39 15° NE 12:43:10 10° E daylight
17 Oct - 14:19:19 10° NW 14:23:33 59° WSW 14:27:52 10° SSE daylight
18 Oct - 03:12:49 10° SE 03:15:27 14° ESE 03:18:00 10° ENE visible
18 Oct - 04:52:22 10° SW 04:57:34 68° WNW 05:02:20 10° NNE visible
18 Oct - 06:40:34 10° NW 06:40:54 10° NW 06:41:14 10° NW daylight
18 Oct - 13:36:46 10° NNW 13:41:04 71° ENE 13:45:26 10° SE daylight
19 Oct - 04:09:51 10° SSW 04:15:04 68° ESE 04:19:50 10° NE visible
19 Oct - 05:54:48 10° W 05:58:00 17° NW 06:01:01 10° N daylight
19 Oct - 12:54:28 10° NNW 12:58:29 37° NE 13:02:32 10° ESE daylight
19 Oct - 14:37:38 10° WNW 14:40:44 19° WSW 14:43:53 10° SSW daylight
20 Oct - 03:27:49 10° S 03:32:37 37° ESE 03:37:04 10° NE visible
20 Oct - 05:10:55 10° WSW 05:15:13 27° NW 05:19:14 10° N visible
20 Oct - 12:12:28 10° N 12:15:47 21° NE 12:19:07 10° E daylight
20 Oct - 13:54:25 10° NW 13:58:24 37° WSW 14:02:28 10° S daylight
21 Oct - 02:46:27 10° SSE 02:50:16 21° ESE 02:53:51 10° ENE visible
21 Oct - 04:27:37 10° SW 04:32:33 46° WNW 04:37:06 10° NNE visible
21 Oct - 11:31:04 10° NNE 11:32:56 12° NE 11:34:49 10° ENE daylight
21 Oct - 13:11:41 10° NNW 13:15:59 75° WSW 13:20:23 10° SSE daylight
22 Oct - 02:06:40 10° ESE 02:07:59 11° ESE 02:09:17 10° E visible
22 Oct - 03:44:48 10° SSW 03:50:00 82° WNW 03:54:46 10° NNE visible
22 Oct - 05:31:21 10° WNW 05:33:10 12° NW 05:34:57 10° NNW daylight
22 Oct - 12:29:13 10° NNW 12:33:28 56° ENE 12:37:47 10° SE daylight
22 Oct - 14:13:39 10° W 14:15:29 12° WSW 14:17:21 10° SW daylight
23 Oct - 03:02:26 10° SSW 03:07:31 55° ESE 03:12:11 10° NE visible
23 Oct - 04:46:44 10° W 04:50:19 19° NW 04:53:43 10° N visible
23 Oct - 11:47:01 10° N 11:50:51 30° NE 11:54:43 10° ESE daylight
23 Oct - 13:29:43 10° NW 13:33:13 24° WSW 13:36:47 10° SSW daylight
24 Oct - 02:20:36 10° S 02:25:06 30° ESE 02:29:17 10° NE visible
24 Oct - 04:03:03 10° WSW 04:07:34 32° NW 04:11:47 10° N visible
24 Oct - 11:05:09 10° N 11:08:06 18° NE 11:11:03 10° E daylight
24 Oct - 12:46:42 10° NW 12:50:51 47° WSW 12:55:07 10° S daylight
25 Oct - 01:39:33 10° SSE 01:42:46 17° ESE 01:45:49 10° ENE visible
25 Oct - 03:19:56 10° SW 03:24:57 56° WNW 03:29:35 10° NNE visible
25 Oct - 10:24:27 10° NNE 10:25:12 10° NE 10:25:58 10° NE daylight
25 Oct - 12:04:04 10° NNW 12:08:24 87° ENE 12:12:50 10° SSE daylight
26 Oct - 02:37:16 10° SSW 02:42:26 82° ESE 02:47:09 10° NNE visible
26 Oct - 04:22:56 10° WNW 04:25:27 14° NW 04:27:55 10° NNW visible
26 Oct - 11:21:42 10° NNW 11:25:51 44° ENE 11:30:05 10° SE daylight
26 Oct - 13:05:21 10° WNW 13:08:00 16° WSW 13:10:41 10° SW daylight
